Weather History for LIVC - November, 2012

Change the Weather History Date:

Wednesday, November 21, 2012

  Actual Average Record
Temperature  
Mean Temperature 36 °F -  
Max Temperature 42 °F 32 °F 50 °F (1999)
Min Temperature 31 °F 24 °F 6 °F (1998)
Degree Days  
Heating Degree Days 28    
Moisture  
Dew Point 20 °F    
Average Humidity 51    
Maximum Humidity 87    
Minimum Humidity 17    
Precipitation  
Precipitation 0.00 in 0.08 in - ()
Sea Level Pressure  
Sea Level Pressure 30.10 in    
Wind  
Wind Speed 13 mph ()    
Max Wind Speed 34 mph    
Max Gust Speed -    
Visibility 19.0 miles    
Events      
Averages and records for this station are not official NWS values.
T = Trace of Precipitation, MM = Missing Value Source: Averaged Metar Reports

Daily Weather History Graph

Daily Weather History Graph

Search for Another Location

Airport or City:

Trip Planner

Search our weather history database for the weather conditions in past years. The results will help you decide how hot, cold, wet, or windy it might be!

Date:

Astronomy

Nov. 21, 2012 Rise Set
Actual Time 7:20 AM CET 4:45 PM CET
Civil Twilight 6:48 AM CET 5:16 PM CET
Nautical Twilight 6:13 AM CET 5:52 PM CET
Astronomical Twilight 5:39 AM CET 6:26 PM CET
Moon 1:06 PM CET (11/21) 12:08 AM CET (11/21)
Length of Visible Light 10h 27m
Length of Day
9h 24m
First Quarter, 59% of the Moon is Illuminated
Nov 21
First Quarter
Nov 28
Full
Dec 6
Last Quarter
Dec 13
New
Dec 20
First Quarter

Hourly Weather History & Observations

Time (CET) Temp. Windchill Dew Point Humidity Pressure Visibility Wind Dir Wind Speed Gust Speed Precip Events Conditions
12:55 AM 32.0 °F 16.7 °F 28.4 °F 87% 30.04 in - North 34.5 mph - N/A   Clear
1:00 AM 32 °F - 28 °F 80%  in 19 mi North 34.5 mph - -  
1:55 AM 32.0 °F 16.7 °F 24.8 °F 75% 30.04 in - North 34.5 mph - N/A   Clear
2:55 AM 33.8 °F 21.0 °F 23.0 °F 65% 30.06 in - North 25.3 mph - N/A   Clear
3:55 AM 33.8 °F 22.2 °F 26.6 °F 75% 30.06 in - North 20.7 mph - N/A   Clear
4:55 AM 33.8 °F 22.2 °F 26.6 °F 75% 30.06 in - North 20.7 mph - N/A   Clear
5:55 AM 33.8 °F 23.2 °F 17.6 °F 52% 30.06 in - NNE 17.3 mph - N/A   Clear
6:55 AM 33.8 °F 25.8 °F 15.8 °F 48% 30.06 in - North 10.4 mph - N/A   Clear
7:00 AM 34 °F - 16 °F 33%  in 22 mi North 10.4 mph - -  
7:55 AM 33.8 °F 27.0 °F 15.8 °F 48% 30.09 in - North 8.1 mph - N/A   Clear
8:55 AM 35.6 °F 30.7 °F 10.4 °F 35% 30.09 in - North 5.8 mph - N/A   Clear
9:55 AM 35.6 °F 31.7 °F 6.8 °F 30% 30.09 in - NNE 4.6 mph - N/A   Clear
10:55 AM 37.4 °F 32.1 °F 8.6 °F 30% 30.12 in - NNE 6.9 mph - N/A   Clear
11:55 AM 37.4 °F 34.9 °F 6.8 °F 28% 30.12 in - ENE 3.5 mph - N/A   Clear
12:55 PM 39.2 °F - 10.4 °F 31% 30.12 in - Calm Calm - N/A   Clear
1:00 PM 39 °F - 10 °F 17%  in 22 mi Calm Calm - -  
1:55 PM 41.0 °F - 23.0 °F 49% 30.09 in - Calm Calm - N/A   Clear
2:55 PM 42.8 °F - 23.0 °F 46% 30.09 in - Calm Calm - N/A   Clear
3:55 PM 41.0 °F - 24.8 °F 53% 30.09 in - Calm Calm - N/A   Clear
4:55 PM 41.0 °F - 26.6 °F 57% 30.09 in - Calm Calm - N/A   Clear
5:55 PM 39.2 °F - 17.6 °F 42% 30.12 in - Calm Calm - N/A   Clear
6:55 PM 39.2 °F - 17.6 °F 42% 30.12 in - Calm Calm - N/A   Clear
7:55 PM 37.4 °F - 23.0 °F 56% 30.12 in - Calm Calm - N/A   Clear
8:55 PM 39.2 °F - 24.8 °F 56% 30.15 in - Calm Calm - N/A   Clear
9:55 PM 37.4 °F 34.9 °F 24.8 °F 60% 30.15 in - North 3.5 mph - N/A   Clear
10:55 PM 39.2 °F 37.0 °F 24.8 °F 56% 30.15 in - North 3.5 mph - N/A   Clear
11:55 PM 39.2 °F - 26.6 °F 61% 30.15 in - Calm Calm - N/A   Clear